Change the Weather History Date:

Friday, March 22, 2013

  Actual Average Record
Temperature  
Mean Temperature 28 °F -  
Max Temperature 41 °F 57 °F 83 °F (1966)
Min Temperature 15 °F 32 °F 15 °F (1986)
Degree Days  
Heating Degree Days 37    
Moisture  
Dew Point 17 °F    
Average Humidity 60    
Maximum Humidity 88    
Minimum Humidity 34    
Precipitation  
Precipitation 0.00 in - - ()
Sea Level Pressure  
Sea Level Pressure 30.09 in    
Wind  
Wind Speed 1 mph (NNE)    
Max Wind Speed 6 mph    
Max Gust Speed -    
Visibility 10 miles    
Events      
Averages and records for this station are not official NWS values.
T = Trace of Precipitation, MM = Missing Value Source: NWS Daily Summary

Daily Weather History Graph

Daily Weather History Graph

Search for Another Location

Airport or City:

Trip Planner

Search our weather history database for the weather conditions in past years. The results will help you decide how hot, cold, wet, or windy it might be!

Date:

Astronomy

Mar. 22, 2013 Rise Set
Actual Time 6:39 AM CDT 6:53 PM CDT
Civil Twilight 6:13 AM CDT 7:19 PM CDT
Nautical Twilight 5:43 AM CDT 7:49 PM CDT
Astronomical Twilight 5:12 AM CDT 8:20 PM CDT
Moon 2:25 PM CDT (3/22) 3:33 AM CDT (3/22)
Length of Visible Light 13h 05m
Length of Day
12h 13m
Waxing Gibbous, 77% of the Moon is Illuminated
Mar 22
Waxing Gibbous
Mar 27
Full
Apr 2
Last Quarter
Apr 10
New
Apr 18
First Quarter

Hourly Weather History & Observations

Time (CDT) Temp. Windchill Dew Point Humidity Pressure Visibility Wind Dir Wind Speed Gust Speed Precip Events Conditions
12:56 AM 16.2 °F - 13.1 °F 88% 30.11 in 10.0 mi Calm Calm - N/A   Clear
1:56 AM 17.1 °F - 13.1 °F 84% 30.11 in 10.0 mi Calm Calm - N/A   Clear
2:56 AM 16.2 °F - 12.0 °F 84% 30.10 in 10.0 mi Calm Calm - N/A   Clear
3:56 AM 15.1 °F - 11.1 °F 84% 30.09 in 10.0 mi Calm Calm - N/A   Clear
4:56 AM 15.1 °F - 11.1 °F 84% 30.09 in 10.0 mi Calm Calm - N/A   Scattered Clouds
5:56 AM 19.0 °F - 15.1 °F 85% 30.10 in 10.0 mi Calm Calm - N/A   Overcast
6:56 AM 17.1 °F - 14.0 °F 88% 30.12 in 10.0 mi Calm Calm - N/A   Clear
7:56 AM 24.1 °F - 18.1 °F 78% 30.13 in 10.0 mi Calm Calm - N/A   Scattered Clouds
8:56 AM 27.1 °F - 17.1 °F 66% 30.15 in 10.0 mi Calm Calm - N/A   Mostly Cloudy
9:56 AM 32.0 °F 26.4 °F 16.2 °F 52% 30.13 in 10.0 mi Variable 5.8 mph - N/A   Mostly Cloudy
10:56 AM 34.9 °F 29.9 °F 16.2 °F 46% 30.12 in 10.0 mi WSW 5.8 mph - N/A   Partly Cloudy
11:56 AM 37.9 °F - 15.1 °F 39% 30.12 in 10.0 mi Calm Calm - N/A   Scattered Clouds
12:56 PM 37.9 °F - 14.0 °F 38% 30.10 in 10.0 mi Calm Calm - N/A   Overcast
1:56 PM 38.8 °F 34.6 °F 16.2 °F 40% 30.08 in 10.0 mi NE 5.8 mph - N/A   Overcast
2:56 PM 41.9 °F 40.0 °F 15.1 °F 34% 30.07 in 10.0 mi Variable 3.5 mph - N/A   Overcast
3:56 PM 41.9 °F 39.0 °F 17.1 °F 37% 30.06 in 10.0 mi NNE 4.6 mph - N/A   Mostly Cloudy
4:56 PM 41.0 °F 37.1 °F 19.0 °F 41% 30.06 in 10.0 mi North 5.8 mph - N/A   Overcast
5:56 PM 41.0 °F 37.1 °F 19.0 °F 41% 30.06 in 10.0 mi NNE 5.8 mph - N/A   Mostly Cloudy
6:56 PM 39.9 °F 36.7 °F 20.1 °F 45% 30.07 in 10.0 mi North 4.6 mph - N/A   Mostly Cloudy
7:56 PM 38.8 °F - 22.1 °F 51% 30.08 in 10.0 mi Calm Calm - N/A   Mostly Cloudy
8:56 PM 37.9 °F - 26.1 °F 62% 30.08 in 10.0 mi Calm Calm - N/A   Overcast
9:56 PM 37.9 °F - 23.0 °F 55% 30.08 in 10.0 mi Calm Calm - N/A   Overcast
11:56 PM 37.9 °F - 26.1 °F 62% 30.06 in 10.0 mi Calm Calm - N/A   Overcast